ROMMA est une association bénévole à but non lucratif. Votre soutien est indispensable : ADHERER à ROMMA ou FAIRE un DON

Chambon - (38, Isère)

Oisans (2460 m)   Longitude: 06° 10' 42" E   Latitude: 45° 01' 32" N Station partenaire n°803
 

Détail journalier du     <<     >>

Température Humidité Vent Dir Rafale Dir. rafale Neige 1 Neige 2
Heure (°C) (%) (km/h) (km/h) (cm) (cm)
01:00 12.03811SSO19SSO32
02:00 12.2299SSO16SSO32
03:00 11.9388SSO16SSO32
04:00 11.6387SSO13SO41
05:00 11.44110SSO13SO42
06:00 11.25310SSO18SSO41
07:00 11.25512SSO21SO43
08:00 12.65011SSO28SSO42
09:00 12.6509SSO24SSO51
10:00 12.6539OSO19O42
11:00 13.6527OSO22OSO32
12:00 14.24713OSO38OSO31
13:00 14.94816OSO35OSO21
14:00 15.24824OSO39OSO12
15:00 15.34925OSO49OSO11
16:00 15.85023OSO46OSO22
17:00 15.65117OSO37OSO21
18:00 15.95019OSO35OSO21
19:00 15.34727OSO48OSO01
20:00 14.65228OSO47OSO12
21:00 14.06023OSO39OSO11
22:00 13.66220SO35SO02
23:00 13.46213SSO28SSO01
minuit 12.36419SSO43SSO52

Graphique du 05-08-2019

 

Serveur OMMA